• In Germany
  • List of Countries
  • For 7 days
  • Water Temperature
  • Satellite Maps
  • Weather Map
  • Weather Widgets
  • user-avatar
    Login

    Hourly Weather Eisenstadt

    Today, 26 June, Monday

    Time Temperature Precipitation Wind Pressure Humidity
    00:00 +17°C° 0 mm 2 mps 721 mmHg 88%
    01:00 +17°C° 0 mm 3 mps 721 mmHg 87%
    02:00 +16°C° 0 mm 3 mps 721 mmHg 87%
    03:00 +16°C° 0 mm 3 mps 721 mmHg 87%
    04:00 +16°C° 0 mm 2 mps 721 mmHg 87%
    05:00 +18°C° 0 mm 2 mps 721 mmHg 82%
    06:00 +19°C° 0 mm 2 mps 722 mmHg 78%
    07:00 +20°C° 0 mm 2 mps 722 mmHg 74%
    08:00 +22°C° 0 mm 3 mps 722 mmHg 66%
    09:00 +25°C° 0 mm 3 mps 722 mmHg 58%
    10:00 +26°C° 0 mm 3 mps 722 mmHg 50%
    11:00 +27°C° 0 mm 3 mps 722 mmHg 50%
    12:00 +27°C° 0 mm 3 mps 722 mmHg 49%
    13:00 +27°C° 0 mm 3 mps 722 mmHg 48%
    14:00 +28°C° 0 mm 3 mps 721 mmHg 48%
    15:00 +28°C° 0 mm 3 mps 721 mmHg 48%
    16:00 +28°C° 0 mm 2 mps 721 mmHg 47%
    17:00 +27°C° 0 mm 2 mps 721 mmHg 55%
    18:00 +26°C° 0 mm 2 mps 720 mmHg 64%
    19:00 +24°C° 0 mm 2 mps 720 mmHg 72%
    20:00 +21°C° 0 mm 2 mps 720 mmHg 76%
    21:00 +20°C° 0 mm 2 mps 720 mmHg 81%
    22:00 +19°C° 0 mm 1 mps 720 mmHg 86%
    23:00 +18°C° 0 mm 1 mps 720 mmHg 87%

    Tomorrow, 27 June, Tuesday

    Time Temperature Precipitation Wind Pressure Humidity
    00:00 +18°C° 0 mm 1 mps 720 mmHg 88%
    01:00 +16°C° 0 mm 1 mps 720 mmHg 89%
    02:00 +16°C° 0 mm 1 mps 720 mmHg 89%
    03:00 +16°C° 0 mm 1 mps 720 mmHg 90%
    04:00 +16°C° 0 mm 1 mps 720 mmHg 90%
    05:00 +18°C° 0 mm 2 mps 720 mmHg 84%
    06:00 +20°C° 0 mm 2 mps 720 mmHg 78%
    07:00 +23°C° 0 mm 2 mps 720 mmHg 72%
    08:00 +25°C° 0 mm 3 mps 720 mmHg 65%
    09:00 +26°C° 0 mm 4 mps 720 mmHg 59%
    10:00 +28°C° 0 mm 4 mps 720 mmHg 53%
    11:00 +28°C° 0 mm 5 mps 720 mmHg 50%
    12:00 +29°C° 0 mm 5 mps 720 mmHg 48%
    13:00 +30°C° 0 mm 5 mps 719 mmHg 45%
    14:00 +30°C° 0 mm 5 mps 719 mmHg 47%
    15:00 +30°C° 0 mm 5 mps 718 mmHg 48%
    16:00 +30°C° 0 mm 5 mps 718 mmHg 50%
    17:00 +28°C° 0.1 mm 4 mps 718 mmHg 57%
    18:00 +27°C° 0.1 mm 3 mps 717 mmHg 64%
    19:00 +25°C° 0.1 mm 3 mps 717 mmHg 71%
    20:00 +24°C° 0 mm 3 mps 717 mmHg 75%
    21:00 +22°C° 0 mm 3 mps 717 mmHg 79%
    22:00 +20°C° 0 mm 3 mps 717 mmHg 83%
    23:00 +20°C° 0 mm 3 mps 717 mmHg 83%

    Day after tomorrow, 28 June, Wednesday

    Time Temperature Precipitation Wind Pressure Humidity
    00:00 +20°C° 0 mm 3 mps 717 mmHg 84%
    01:00 +19°C° 0 mm 3 mps 717 mmHg 85%
    02:00 +19°C° 0 mm 3 mps 716 mmHg 85%
    03:00 +18°C° 0 mm 3 mps 716 mmHg 85%
    04:00 +18°C° 0 mm 3 mps 716 mmHg 86%
    05:00 +20°C° 0 mm 3 mps 716 mmHg 80%
    06:00 +21°C° 0 mm 4 mps 716 mmHg 75%
    07:00 +23°C° 0 mm 4 mps 716 mmHg 69%
    08:00 +26°C° 0 mm 5 mps 716 mmHg 63%
    09:00 +28°C° 0 mm 6 mps 715 mmHg 56%
    10:00 +29°C° 0 mm 7 mps 715 mmHg 49%
    11:00 +30°C° 0 mm 7 mps 715 mmHg 48%
    12:00 +32°C° 0 mm 8 mps 714 mmHg 46%
    13:00 +33°C° 0 mm 8 mps 714 mmHg 45%
    14:00 +32°C° 0 mm 8 mps 713 mmHg 46%
    15:00 +32°C° 0 mm 8 mps 713 mmHg 47%
    16:00 +32°C° 0 mm 8 mps 713 mmHg 48%
    17:00 +30°C° 0 mm 7 mps 712 mmHg 53%
    18:00 +28°C° 0 mm 7 mps 712 mmHg 58%
    19:00 +27°C° 0 mm 6 mps 712 mmHg 63%
    20:00 +24°C° 0.2 mm 6 mps 712 mmHg 66%
    21:00 +23°C° 0.2 mm 6 mps 712 mmHg 69%
    22:00 +21°C° 0.2 mm 5 mps 711 mmHg 71%
    23:00 +21°C° 0.1 mm 5 mps 711 mmHg 74%

    29 June, Thursday

    Time Temperature Precipitation Wind Pressure Humidity
    00:00 +20°C° 0.1 mm 5 mps 711 mmHg 76%
    01:00 +20°C° 0.1 mm 5 mps 710 mmHg 79%
    02:00 +19°C° 0 mm 5 mps 710 mmHg 81%
    03:00 +19°C° 0 mm 5 mps 709 mmHg 83%
    04:00 +19°C° 0 mm 5 mps 709 mmHg 85%
    05:00 +20°C° 0 mm 6 mps 709 mmHg 80%
    06:00 +21°C° 0 mm 6 mps 710 mmHg 75%
    07:00 +21°C° 0 mm 7 mps 710 mmHg 70%
    08:00 +23°C° 0 mm 7 mps 710 mmHg 64%
    09:00 +24°C° 0 mm 8 mps 710 mmHg 59%
    10:00 +26°C° 0 mm 8 mps 711 mmHg 53%
    11:00 +26°C° 0.4 mm 9 mps 711 mmHg 54%
    12:00 +26°C° 0.4 mm 9 mps 711 mmHg 55%
    13:00 +26°C° 0.4 mm 9 mps 712 mmHg 56%
    14:00 +26°C° 0.6 mm 8 mps 712 mmHg 58%
    15:00 +24°C° 0.6 mm 7 mps 712 mmHg 59%
    16:00 +23°C° 0.6 mm 6 mps 713 mmHg 61%
    17:00 +22°C° 0.2 mm 6 mps 713 mmHg 64%
    18:00 +21°C° 0.2 mm 5 mps 713 mmHg 67%
    19:00 +20°C° 0.2 mm 4 mps 713 mmHg 69%
    20:00 +18°C° 0 mm 3 mps 714 mmHg 73%
    21:00 +17°C° 0 mm 3 mps 714 mmHg 76%
    22:00 +16°C° 0 mm 2 mps 715 mmHg 80%
    23:00 +15°C° 0 mm 2 mps 715 mmHg 81%

    30 June, Friday

    Time Temperature Precipitation Wind Pressure Humidity
    00:00 +14°C° 0 mm 2 mps 715 mmHg 82%
    01:00 +14°C° 0 mm 2 mps 716 mmHg 83%
    02:00 +14°C° 0 mm 2 mps 716 mmHg 83%
    03:00 +14°C° 0 mm 2 mps 716 mmHg 83%
    04:00 +14°C° 0 mm 2 mps 716 mmHg 83%
    05:00 +15°C° 0 mm 2 mps 717 mmHg 80%
    06:00 +16°C° 0 mm 2 mps 717 mmHg 76%
    07:00 +17°C° 0 mm 2 mps 718 mmHg 72%
    08:00 +18°C° 0 mm 2 mps 718 mmHg 67%
    09:00 +20°C° 0 mm 2 mps 718 mmHg 62%
    10:00 +21°C° 0 mm 2 mps 718 mmHg 57%
    11:00 +22°C° 0.1 mm 3 mps 718 mmHg 55%
    12:00 +23°C° 0.1 mm 4 mps 718 mmHg 53%
    13:00 +25°C° 0.1 mm 4 mps 718 mmHg 51%
    14:00 +26°C° 0.2 mm 5 mps 718 mmHg 48%
    15:00 +26°C° 0.2 mm 5 mps 717 mmHg 46%
    16:00 +26°C° 0.2 mm 5 mps 717 mmHg 44%
    17:00 +25°C° 0 mm 5 mps 717 mmHg 48%
    18:00 +23°C° 0 mm 5 mps 717 mmHg 52%
    19:00 +21°C° 0 mm 5 mps 717 mmHg 55%
    20:00 +20°C° 0 mm 5 mps 717 mmHg 59%
    21:00 +19°C° 0 mm 4 mps 717 mmHg 62%
    22:00 +18°C° 0 mm 4 mps 717 mmHg 65%
    23:00 +17°C° 0 mm 4 mps 717 mmHg 67%

    1 July, Saturday

    Time Temperature Precipitation Wind Pressure Humidity
    00:00 +17°C° 0 mm 3 mps 717 mmHg 69%
    01:00 +16°C° 0 mm 3 mps 717 mmHg 72%
    02:00 +16°C° 0 mm 3 mps 717 mmHg 73%
    03:00 +15°C° 0 mm 2 mps 717 mmHg 74%
    04:00 +15°C° 0 mm 2 mps 716 mmHg 75%
    05:00 +16°C° 0.1 mm 2 mps 717 mmHg 74%
    06:00 +17°C° 0.1 mm 2 mps 717 mmHg 73%
    07:00 +19°C° 0.1 mm 1 mps 717 mmHg 72%
    08:00 +19°C° 0.3 mm 2 mps 718 mmHg 69%
    09:00 +20°C° 0.3 mm 2 mps 718 mmHg 67%
    10:00 +21°C° 0.3 mm 2 mps 718 mmHg 65%
    11:00 +23°C° 0.4 mm 2 mps 718 mmHg 61%
    12:00 +24°C° 0.4 mm 1 mps 718 mmHg 57%
    13:00 +25°C° 0.4 mm 1 mps 718 mmHg 54%
    14:00 +24°C° 0.4 mm 2 mps 718 mmHg 54%
    15:00 +24°C° 0.4 mm 2 mps 718 mmHg 54%
    16:00 +24°C° 0.4 mm 3 mps 718 mmHg 55%
    17:00 +22°C° 0.3 mm 3 mps 719 mmHg 60%
    18:00 +21°C° 0.3 mm 3 mps 719 mmHg 65%
    19:00 +20°C° 0.3 mm 3 mps 719 mmHg 70%
    20:00 +18°C° 0.1 mm 3 mps 720 mmHg 74%
    21:00 +17°C° 0.1 mm 3 mps 720 mmHg 77%
    22:00 +16°C° 0.1 mm 3 mps 720 mmHg 81%
    23:00 +14°C° 0 mm 4 mps 721 mmHg 81%
    Show more